[[{"header":{"parameterUnit":"m.s-1","parameterCategory":1,"la1":30.2991,"la2":30.254,"lo1":-89.0895,"lo2":-89.0444,"dy":0.0017,"dx":0.0017,"nx":28,"ny":28,"refTime":"2024-08-23T21:00:00:Z","depth":0,"parameterNumber":2,"parameterNumberName":"U-component_of_WINDS"},"data":[0,0,0,0,0,0,0,0,0,0,0,0,0,0,0,0,0,0,0,0,0,0,0,0,0,0,0,0,0,0,0,0,0,0,0,0,0,0,0,0,0,0,0,0,0,0,0,0,0,0,0,0,0,0,0,0,0,0,-2.9988,-2.9989,0,-3.0047,-3.0048,-3.0048,-2.9998,-2.9996,-2.9994,-2.9992,-3.0051,-3.0054,-3.0058,0,0,0,0,0,0,0,0,0,0,0,0,0,-2.983,-2.9833,-2.9988,-2.9989,-2.999,-3.0047,-3.0048,-3.0049,-2.9998,-2.9996,-2.9993,-2.9991,-3.005,-3.0054,-3.0058,0,0,0,0,0,0,0,0,0,0,0,0,0,-2.9895,-2.9834,-2.9988,-2.9971,-2.997,-3.0047,-3.0048,-3.0049,-2.9999,-2.9995,-2.9992,-2.9989,-3.0048,-3.0053,-3.0059,-3.0154,0,0,-3.0075,-3.0077,0,0,0,0,0,0,0,0,-2.9891,-2.9901,-2.9973,-2.9973,-2.9972,-3.0012,-3.0014,-3.0084,-2.9999,-2.9988,-2.9991,-2.9988,-3.004,-3.0046,-3.0064,-3.0157,-3.016,-3.0075,-3.0079,-3.0081,-3.0082,0,0,0,0,0,0,0,-2.9887,-2.9898,-3.0011,-2.9974,-2.9973,-2.996,-2.9966,-3.0027,-3.0031,-2.9989,-2.9985,-2.9993,-3.0039,-3.0059,-3.0065,-3.0161,-3.0075,-3.008,-3.0083,-3.0085,-3.0333,-3.0336,0,0,0,0,0,0,-2.9884,-2.9894,-3.0009,-3.0013,-2.9923,-2.9966,-2.9972,-3.0002,-3.003,-3.0031,-2.9995,-2.999,-3.0052,-3.0059,-3.0067,-3.0179,-3.0081,-3.0086,-3.0089,-3.033,-3.0334,-3.0338,0,0,0,0,0,0,-2.9881,-2.9895,-3.0007,-2.9953,-2.9966,-2.9972,-3.0006,-3.0005,-3.0024,-3.0035,-3.0036,-3.0015,-3.0049,-3.0059,-3.0133,-3.018,-3.0088,-3.0093,-3.0326,-3.0331,-3.0336,-3.0405,0,0,0,0,0,0,-2.9877,-2.9894,-2.9931,-2.9954,-2.9969,-3.0073,-3.0009,-3.0008,-3.0034,-3.0028,-3.0054,-3.0055,-3.0048,-3.0125,-3.0138,-3.0186,-3.0097,-3.0321,-3.0328,-3.0334,-3.0398,-3.0412,-3.0423,0,0,0,0,0,-2.9871,-2.9948,-2.9933,-2.9947,-3.0015,-3.0075,-3.0084,-3.0074,-3.0038,-3.0075,-3.0081,-3.0054,-3.0174,-3.0133,-3.0147,-3.0197,-3.0318,-3.0326,-3.0334,-3.0393,-3.0409,-3.0423,0,0,0,0,0,0,-2.993,-2.9951,-2.9934,-3.0021,-3.0047,-3.0067,-3.0112,-3.0092,-3.0129,-3.0121,-3.0107,-3.0114,-3.019,-3.0202,-3.0156,-3.0291,-3.024,-3.0251,-3.028,-3.0296,-3.0308,-3.0303,-3.0102,0,0,0,0,0,-2.9954,-3.0001,-3.0016,-3.0092,-3.0105,-3.0107,-3.0133,-3.0123,-3.0149,-3.0159,-3.0172,-3.0197,-3.024,-3.0269,-3.031,-3.0401,-3.0404,-3.0442,-3.0455,-3.0465,-3.0474,-3.0521,-3.0537,-3.0363,-3.0363,-3.0362,0,0,-3.0002,-3.0019,-3.005,-3.0104,-3.0123,-3.0171,-3.0116,-3.017,-3.0206,-3.0168,-3.0237,-3.0247,-3.0275,-3.0357,-3.0393,-3.0368,-3.0523,-3.0475,-3.0483,-3.0486,-3.053,-3.0547,-3.0561,-3.0368,-3.0367,-3.0366,0,0,-3.0114,-3.0133,-3.0196,-3.0216,-3.0245,-3.0246,-3.0261,-3.0284,-3.0289,-3.0359,-3.0331,-3.0373,-3.0448,-3.0468,-3.0488,-3.0608,-3.0584,-3.0622,-3.0686,-3.0732,-3.0746,-3.0758,-3.0798,-3.0813,-3.0631,-3.0631,-3.0631,0,-3.017,-3.0242,-3.0232,-3.0287,-3.0311,-3.0279,-3.0343,-3.0363,-3.0404,-3.0421,-3.0392,-3.0485,-3.0502,-3.0587,-3.0616,-3.0634,-3.065,-3.0618,-3.0745,-3.0757,-3.0768,-3.0806,-3.0822,-3.0636,-3.0635,-3.0635,-3.0634,0,-3.0309,-3.0359,-3.0407,-3.0447,-3.0477,-3.0537,-3.0534,-3.0565,-3.0553,-3.0557,-3.0627,-3.0646,-3.0689,-3.0709,-3.0698,-3.0793,-3.0776,-3.0747,-3.0695,-3.0789,-3.0824,-3.0839,-3.0642,-3.064,-3.0639,-3.0638,0,0,-3.0459,-3.0492,-3.051,-3.0526,-3.0556,-3.0595,-3.0653,-3.0695,-3.0721,-3.075,-3.0797,-3.0861,-3.0834,-3.0857,-3.0848,-3.0889,-3.098,-3.0854,-3.0855,-3.0875,-3.1083,-3.1103,-3.1121,-3.0965,-3.0968,-3.097,-3.108,0,-3.0571,-3.0671,-3.0663,-3.0757,-3.0802,-3.0773,-3.0823,-3.0846,-3.0851,-3.089,-3.0895,-3.094,-3.0902,-3.0915,-3.0954,-3.0961,-3.1021,-3.0953,-3.1007,-3.1009,-3.0998,-3.114,-3.1161,-3.1264,-3.1094,-3.1097,-3.1098,0,-3.0714,-3.0748,-3.0847,-3.0868,-3.0887,-3.0932,-3.0969,-3.1007,-3.1033,-3.1033,-3.1059,-3.1043,-3.11,-3.1049,-3.1127,-3.108,-3.1102,-3.1109,-3.1113,-3.1115,-3.1058,-3.1144,-3.1297,-3.1311,-3.1121,-3.1119,-3.1117,0,-3.0811,-3.0881,-3.0949,-3.0965,-3.0992,-3.1024,-3.1037,-3.1059,-3.1085,-3.1117,-3.1133,-3.1173,-3.1194,-3.1224,-3.1219,-3.1182,-3.1297,-3.1246,-3.1298,-3.1298,-3.1322,-3.132,-3.1478,-3.134,-3.134,-3.1339,-3.1339,0,-3.0935,-3.0996,-3.0992,-3.1034,-3.1101,-3.1091,-3.1158,-3.1167,-3.1187,-3.1229,-3.1207,-3.1246,-3.1238,-3.1278,-3.1274,-3.1338,-3.1348,-3.1349,-3.1347,-3.135,-3.1349,-3.1362,-3.1354,-3.1343,-3.1342,-3.1342,-3.1341,0,-3.1053,-3.1054,-3.1125,-3.1145,-3.1152,-3.12,-3.1217,-3.1255,-3.1258,-3.1312,-3.1324,-3.1328,-3.1374,-3.1372,-3.1424,-3.1421,-3.1499,-3.149,-3.149,-3.1487,-3.1538,-3.1533,-3.1708,-3.173,-3.158,-3.1581,-3.1583,0,-3.1131,-3.1178,-3.1202,-3.1229,-3.1243,-3.1287,-3.1312,-3.1304,-3.1332,-3.1364,-3.1398,-3.1442,-3.1476,-3.1549,-3.1557,-3.1596,-3.1586,-3.1645,-3.1592,-3.1593,-3.1584,-3.1581,-3.1584,-3.1655,-3.1656,-3.1658,-3.1659,0,-3.1269,-3.1267,-3.1305,-3.1343,-3.1374,-3.1403,-3.143,-3.1453,-3.1448,-3.148,-3.1526,-3.1552,-3.1605,-3.1647,-3.1685,-3.1697,-3.1677,-3.1676,-3.1689,-3.1692,-3.1689,-3.1689,-3.1516,-3.1671,-3.167,-3.1669,-3.1668,-3.1668,-3.1368,-3.1407,-3.143,-3.1473,-3.1492,-3.1518,-3.1554,-3.1562,-3.16,-3.1642,-3.1635,-3.1686,-3.1709,-3.1757,-3.1773,-3.1813,-3.1792,-3.1812,-3.1817,-3.1821,-3.1826,-3.1685,-3.182,-3.1819,-3.1819,-3.1819,-3.1819,0,-3.1503,-3.1516,-3.1556,-3.1594,-3.1627,-3.1606,-3.1634,-3.1663,-3.1708,-3.1732,-3.1765,-3.1818,-3.1859,-3.187,-3.1909,-3.1938,-3.193,-3.1949,-3.1945,-3.1948,-3.1843,-3.1827,-3.1955,-3.1955,-3.1955,-3.1955,-3.1955,-3.1955,-3.1577,-3.1641,-3.1641,-3.1714,-3.1727,-3.1776,-3.1794,-3.1817,-3.1836,-3.1895,-3.1929,-3.1936,-3.1954,-3.1994,-3.2031,-3.2033,-3.2047,-3.207,-3.2068,-3.1969,-3.1956,-3.1943,-3.1927,-3.2074,-3.2074,-3.2169,-3.217,-3.217]},{"header":{"parameterUnit":"m.s-1","parameterCategory":1,"la1":30.2991,"la2":30.254,"lo1":-89.0895,"lo2":-89.0444,"dy":0.0017,"dx":0.0017,"nx":28,"ny":28,"refTime":"2024-08-23T21:00:00:Z","depth":0,"parameterNumber":3,"parameterNumberName":"V-component_of_WINDS"},"data":[0,0,0,0,0,0,0,0,0,0,0,0,0,0,0,0,0,0,0,0,0,0,0,0,0,0,0,0,0,0,0,0,0,0,0,0,0,0,0,0,0,0,0,0,0,0,0,0,0,0,0,0,0,0,0,0,0,0,1.7832,1.7832,0,1.7834,1.7834,1.7834,1.7752,1.775,1.7748,1.7746,1.7747,1.7749,1.7751,0,0,0,0,0,0,0,0,0,0,0,0,0,1.7757,1.7759,1.7832,1.7832,1.7832,1.7834,1.7834,1.7834,1.7753,1.775,1.7748,1.7745,1.7746,1.7748,1.7751,0,0,0,0,0,0,0,0,0,0,0,0,0,1.7777,1.776,1.7832,1.7792,1.7788,1.7834,1.7834,1.7834,1.7753,1.775,1.7747,1.7744,1.7745,1.7748,1.7751,1.7834,0,0,1.776,1.7762,0,0,0,0,0,0,0,0,1.7776,1.778,1.7798,1.7795,1.7791,1.7789,1.7807,1.7834,1.7754,1.7767,1.7746,1.7742,1.7763,1.7765,1.7772,1.7834,1.7834,1.7761,1.7762,1.7764,1.7765,0,0,0,0,0,0,0,1.7775,1.778,1.7832,1.7798,1.7794,1.7773,1.7773,1.7812,1.7783,1.7765,1.7759,1.7761,1.7761,1.7769,1.7772,1.7834,1.7761,1.7763,1.7765,1.7766,1.7964,1.7968,0,0,0,0,0,0,1.7779,1.7779,1.7832,1.7832,1.7775,1.7777,1.7776,1.7793,1.7782,1.7778,1.7764,1.7757,1.7766,1.7768,1.7771,1.7867,1.7764,1.7767,1.7768,1.7961,1.7965,1.7969,0,0,0,0,0,0,1.7778,1.7785,1.7832,1.7804,1.7809,1.7782,1.7801,1.7795,1.7803,1.7781,1.7775,1.7778,1.7763,1.7767,1.7819,1.7866,1.7768,1.7771,1.7957,1.7962,1.7967,1.806,0,0,0,0,0,0,1.7776,1.7785,1.7816,1.7805,1.781,1.7881,1.7804,1.7797,1.7809,1.78,1.7793,1.7788,1.7761,1.7815,1.7822,1.7868,1.7773,1.7953,1.7959,1.7965,1.8053,1.8068,1.8081,0,0,0,0,0,1.7774,1.7842,1.7818,1.7825,1.785,1.7884,1.7886,1.7854,1.7813,1.7844,1.783,1.7789,1.786,1.7821,1.7828,1.7876,1.7949,1.7957,1.7965,1.8047,1.8065,1.8081,0,0,0,0,0,0,1.7859,1.784,1.7813,1.7881,1.7885,1.787,1.7908,1.7875,1.789,1.7881,1.784,1.7839,1.7897,1.7892,1.7849,1.7956,1.7897,1.7907,1.7957,1.7975,1.7988,1.7988,1.7776,0,0,0,0,0,1.7886,1.7916,1.7897,1.7959,1.7962,1.7935,1.7949,1.7924,1.7926,1.7927,1.7916,1.7919,1.7942,1.7958,1.7978,1.8052,1.8049,1.8089,1.8103,1.8115,1.8123,1.8161,1.8178,1.7994,1.7994,1.7994,0,0,1.7941,1.7934,1.7956,1.7976,1.7975,1.8007,1.7937,1.7973,1.7995,1.7932,1.798,1.7973,1.7974,1.8037,1.8065,1.8035,1.8173,1.8125,1.8134,1.8136,1.8171,1.8188,1.8204,1.8,1.7999,1.7998,0,0,1.8057,1.8056,1.8106,1.8108,1.8109,1.8091,1.8103,1.8094,1.8087,1.8135,1.8088,1.8114,1.8155,1.8157,1.8164,1.8282,1.8244,1.829,1.8363,1.84,1.8415,1.8427,1.8469,1.8484,1.8298,1.8299,1.8299,0,1.8125,1.8171,1.8136,1.8176,1.8185,1.813,1.818,1.8184,1.8191,1.8199,1.8166,1.8216,1.8212,1.8275,1.8304,1.8312,1.8324,1.829,1.8416,1.8428,1.8439,1.8478,1.8494,1.8304,1.8304,1.8303,1.8302,0,1.8254,1.8287,1.8327,1.8337,1.8351,1.8396,1.8367,1.8386,1.836,1.8346,1.8395,1.839,1.8408,1.8421,1.8396,1.848,1.8462,1.8423,1.8363,1.8463,1.8499,1.8513,1.8312,1.831,1.8308,1.8307,0,0,1.8423,1.8413,1.8428,1.8432,1.8429,1.8453,1.8496,1.8513,1.853,1.8538,1.8571,1.8608,1.8572,1.8579,1.8554,1.8587,1.868,1.8544,1.8543,1.8569,1.8773,1.8801,1.8819,1.8656,1.8659,1.8661,1.8772,0,1.8535,1.8607,1.8577,1.8651,1.868,1.8629,1.8665,1.8668,1.8655,1.8678,1.8664,1.869,1.8641,1.8645,1.8676,1.8663,1.8721,1.8654,1.8686,1.8688,1.8686,1.8838,1.8868,1.8973,1.8786,1.8788,1.879,0,1.8675,1.8688,1.8766,1.8758,1.8769,1.8803,1.8817,1.8839,1.8841,1.8829,1.8839,1.8806,1.8846,1.8788,1.8843,1.8798,1.881,1.8805,1.8809,1.8809,1.8744,1.8841,1.9006,1.9021,1.8812,1.881,1.8809,0,1.8789,1.8827,1.8878,1.8882,1.8875,1.8899,1.8897,1.8896,1.8909,1.8921,1.8928,1.8945,1.8954,1.8968,1.8941,1.8901,1.8999,1.8939,1.899,1.8991,1.9012,1.9011,1.918,1.9022,1.9022,1.9021,1.9021,0,1.8916,1.8965,1.8929,1.896,1.9013,1.8979,1.9032,1.9025,1.9024,1.9052,1.9009,1.9037,1.8999,1.9023,1.9002,1.9051,1.9055,1.9047,1.904,1.905,1.9051,1.9056,1.9048,1.9026,1.9025,1.9024,1.9023,0,1.9052,1.903,1.9082,1.9071,1.9069,1.9109,1.9099,1.9127,1.9112,1.9149,1.9156,1.9132,1.9158,1.9133,1.9157,1.9143,1.9207,1.9191,1.9207,1.9202,1.9255,1.925,1.9431,1.9453,1.9283,1.9284,1.9286,0,1.9134,1.9171,1.9164,1.918,1.9181,1.9208,1.9221,1.9188,1.9203,1.9208,1.9236,1.9258,1.9274,1.9318,1.9303,1.9322,1.9305,1.9367,1.9307,1.9315,1.9304,1.9302,1.9305,1.9379,1.9381,1.9383,1.9384,0,1.9282,1.9269,1.929,1.9307,1.9323,1.9335,1.9343,1.9359,1.9325,1.9345,1.9371,1.9384,1.9409,1.9431,1.9445,1.9443,1.9408,1.9403,1.9416,1.9425,1.9433,1.9429,1.9239,1.9399,1.9397,1.9396,1.9395,1.9395,1.9393,1.9423,1.9423,1.9447,1.945,1.9459,1.9484,1.9473,1.9495,1.9513,1.9493,1.9525,1.9525,1.954,1.9542,1.9566,1.954,1.9559,1.9563,1.9568,1.9575,1.943,1.9569,1.9569,1.9568,1.9568,1.9567,0,1.9537,1.9535,1.9558,1.9571,1.959,1.9556,1.9564,1.9582,1.9611,1.9614,1.9631,1.9662,1.9684,1.9671,1.9689,1.9711,1.9696,1.9717,1.9715,1.9715,1.9598,1.9585,1.973,1.973,1.9729,1.9729,1.9729,1.9729,1.9615,1.9664,1.9651,1.9701,1.9698,1.9729,1.9736,1.9744,1.9747,1.9783,1.9801,1.9792,1.9789,1.9808,1.9826,1.9822,1.983,1.9857,1.9847,1.9739,1.9723,1.9708,1.9695,1.986,1.986,1.9961,1.9962,1.9963]}]]